Talkeetna, AK

10:30 PM AKDT on September 19, 2017 (GMT -0800)
Talkeetna

Weather History for PATK - November, 2012

Change the Weather History Date:

Tuesday, November 13, 2012

  Actual Average Record
Temperature  
Mean Temperature 20 °F -  
Max Temperature 26 °F 24 °F 45 °F (2016)
Min Temperature 14 °F 6 °F -29 °F (1956)
Degree Days  
Heating Degree Days 45    
Moisture  
Dew Point 9 °F    
Average Humidity 61    
Maximum Humidity 81    
Minimum Humidity 49    
Precipitation  
Precipitation 0.04 in - - ()
Sea Level Pressure  
Sea Level Pressure 29.94 in    
Wind  
Wind Speed 4 mph (North)    
Max Wind Speed 14 mph    
Max Gust Speed 21 mph    
Visibility 9 miles    
Events Snow    
Averages and records for this station are not official NWS values.
T = Trace of Precipitation, MM = Missing Value Source: NWS Daily Summary

Daily Weather History Graph

Daily Weather History Graph

Search for Another Location

Airport or City:

Trip Planner

Search our weather history database for the weather conditions in past years. The results will help you decide how hot, cold, wet, or windy it might be!

Date:

Astronomy

Nov. 13, 2012 Rise Set
Actual Time 9:10 AM AKST 4:18 PM AKST
Civil Twilight 8:16 AM AKST 5:12 PM AKST
Nautical Twilight 7:20 AM AKST 6:08 PM AKST
Astronomical Twilight 6:27 AM AKST 7:00 PM AKST
Moon 9:10 AM AKST (11/13) 4:06 PM AKST (11/13)
Length of Visible Light 8h 55m
Length of Day
7h 07m
Waning Crescent, 0% of the Moon is Illuminated
Nov 13
Waning Crescent
Nov 13
New
Nov 20
First Quarter
Nov 28
Full
Dec 6
Last Quarter

Hourly Weather History & Observations

Time (AKST) Temp. Windchill Dew Point Humidity Pressure Visibility Wind Dir Wind Speed Gust Speed Precip Events Conditions
12:53 AM 21.0 °F 16.2 °F 12.0 °F 68% 30.07 in 10.0 mi NNE 3.5 mph - N/A   Overcast
1:53 AM 21.0 °F - 10.9 °F 65% 30.07 in 10.0 mi Calm Calm - N/A   Overcast
2:53 AM 21.0 °F - 10.9 °F 65% 30.06 in 10.0 mi Calm Calm - N/A   Overcast
3:53 AM 19.0 °F - 9.0 °F 65% 30.05 in 10.0 mi Calm Calm - N/A   Mostly Cloudy
4:15 AM 17.6 °F 12.3 °F 8.6 °F 68% 30.03 in 10.0 mi NW 3.5 mph - N/A   Mostly Cloudy
4:29 AM 17.6 °F 12.3 °F 8.6 °F 68% 30.03 in 10.0 mi Variable 3.5 mph - N/A   Scattered Clouds
4:53 AM 17.1 °F 10.0 °F 7.0 °F 65% 30.05 in 10.0 mi North 4.6 mph - N/A   Clear
5:53 AM 16.0 °F 10.4 °F 7.0 °F 68% 30.06 in 10.0 mi Variable 3.5 mph - N/A   Clear
6:53 AM 14.0 °F - 6.1 °F 71% 30.05 in 10.0 mi Calm Calm - N/A   Clear
7:53 AM 15.1 °F 9.4 °F 7.0 °F 70% 30.05 in 10.0 mi Variable 3.5 mph - N/A   Clear
8:53 AM 17.1 °F 10.0 °F 7.0 °F 65% 30.04 in 10.0 mi North 4.6 mph - N/A   Clear
9:53 AM 18.0 °F 12.7 °F 7.0 °F 62% 30.03 in 10.0 mi NNW 3.5 mph - N/A   Clear
10:53 AM 19.0 °F - 8.1 °F 62% 30.01 in 10.0 mi Calm Calm - N/A   Scattered Clouds
11:53 AM 21.0 °F 13.4 °F 8.1 °F 57% 29.98 in 10.0 mi NNW 5.8 mph - N/A   Scattered Clouds
12:53 PM 21.9 °F 15.7 °F 7.0 °F 53% 29.95 in 10.0 mi North 4.6 mph - N/A   Clear
1:53 PM 21.9 °F 15.7 °F 8.1 °F 55% 29.93 in 10.0 mi NNW 4.6 mph - N/A   Overcast
2:53 PM 23.0 °F 18.4 °F 9.0 °F 55% 29.91 in 10.0 mi NNW 3.5 mph - N/A   Overcast
3:53 PM 24.1 °F 16.0 °F 8.1 °F 51% 29.88 in 10.0 mi NNE 6.9 mph - N/A   Overcast
4:53 PM 25.0 °F 17.1 °F 8.1 °F 49% 29.85 in 10.0 mi North 6.9 mph - N/A   Overcast
5:53 PM 25.0 °F 17.1 °F 9.0 °F 51% 29.83 in 10.0 mi North 6.9 mph - N/A   Overcast
6:53 PM 25.0 °F 15.5 °F 9.0 °F 51% 29.82 in 10.0 mi NNE 9.2 mph 17.3 mph N/A   Overcast
7:53 PM 26.1 °F 17.6 °F 9.0 °F 49% 29.80 in 10.0 mi NE 8.1 mph 17.3 mph N/A   Overcast
8:53 PM 26.1 °F 14.5 °F 10.9 °F 53% 29.78 in 10.0 mi NNE 13.8 mph 20.7 mph N/A   Overcast
9:53 PM 26.1 °F 16.2 °F 10.9 °F 53% 29.75 in 10.0 mi NNE 10.4 mph 17.3 mph N/A   Overcast
10:53 PM 25.0 °F 13.6 °F 15.1 °F 66% 29.73 in 7.0 mi NNE 12.7 mph - 0.00 in Snow Light Snow
11:40 PM 24.8 °F 14.6 °F 17.6 °F 74% 29.69 in 2.0 mi NNE 10.4 mph - 0.00 in Snow Light Snow
11:53 PM 24.1 °F 13.7 °F 19.0 °F 81% 29.71 in 2.5 mi NNE 10.4 mph - 0.00 in Snow Light Snow